{"data":{"norad_id":58624,"epoch":"2026-05-25T00:15:56.814336Z","epoch_age_seconds":80899,"freshness":"FRESH","line1":"1 58624U 23203G   26145.01107424  .00021754  00000+0  79635-3 0  9993","line2":"2 58624  43.0033 356.0834 0001133 268.5279  91.5443 15.27636227135237","mean_motion":15.27636227,"eccentricity":0.0001133,"inclination_deg":43.0033,"raan_deg":356.0834,"arg_perigee_deg":268.5279,"mean_anomaly_deg":91.5443,"bstar":0.00079635,"rev_number":13523,"period_min":94.263279081035,"perigee_km":482.10338402855,"apogee_km":483.65809064783,"semimajor_km":6861.0177373382,"source":"CELESTRAK","updated_at":"2026-05-25T13:38:18.706106Z"}}